Location: Kumla
(59.1265°N, 15.1401°E)
Time: 17:34:03
(UTC+01:00)

A-11 Canister half - Pass Details

Date: 04 December 2023
Orbit: 1526 x 1682 km, 47.3° (Epoch: 24 February)

Event Time Altitude Azimuth Distance (km) Brightness Sun altitude
Rises 21:32:28 0° 247° (WSW) 4,931 11.9 -45.9°
Reaches altitude 10° 21:35:52 10° 241° (WSW) 3,939 11.2 -46.2°
Enters shadow 21:37:56 17° 235° (SW) 3,372 10.8 -46.4°
Maximum altitude 21:45:04 42° 175° (S) 2,226 - -47.0°
Drops below altitude 10° 21:54:04 10° 109° (ESE) 3,858 - -47.8°
Sets 21:57:21 0° 103° (ESE) 4,823 - -48.1°
